Regional Weather Roundup
Issued by NWS

Home | Current Version | Previous Version | Text Only | Print | Product List | Glossary Off
Versions: 1 2 3 4 5 6 7 8 9 10 11 12 13 14 15 16 17 18 19 20 21 22 23 24 25 26 27 28 29 30 31 32 33 34 35 36 37 38 39 40 41 42 43 44 45 46 47 48 49 50

000
ASUS45 KABQ 012101
RWRNM
WEATHER ROUNDUP FOR NEW MEXICO
NATIONAL WEATHER SERVICE ALBUQUERQUE NM
300 PM MDT MON SEP 01 2014

NOTE: "FAIR" MEANS FEW OR NO CLOUDS BELOW 12,000 FEET AGL WITH NO
       SIGNIFICANT WEATHER OR OBSTRUCTIONS TO VISION.

      THIS PRODUCT IS RELEASED AS TWO VERSIONS.  ONE VERSION NEAR
      THE TOP OF THE HOUR CONTAINING PRELIMINARY DATA FROM ALBUQUERQUE
      AND OTHER STATIONS.  A FINAL VERSION WITH ADDITIONAL DATA IS
      ISSUED ABOUT 10 MINUTES AFTER THE HOUR.

NMZ501-503-504-510>518-012200-
NORTHWEST PLATEAU/NORTHCENTRAL MOUNTAINS

CITY           SKY/WX    TMP DP  RH WIND       PRES   REMARKS
FARMINGTON     SUNNY     88  31  13 W9G25     30.06F
LOS ALAMOS     SUNNY     80  33  18 CALM      30.18F
SANTA FE       SUNNY     88  32  13 W13G30    30.10F
ANGEL FIRE     FAIR      74  31  20 NW16G23   30.25F

$$
NMZ402-403-502-505>509-012200-
WESTCENTRAL MOUNTAINS/SOUTHWEST MOUNTAINS

CITY           SKY/WX    TMP DP  RH WIND       PRES   REMARKS
GALLUP         SUNNY     86  34  15 W9G20     30.15F
SILVER CITY    SUNNY     88  34  14 W7        30.11F

$$
NMZ407-409-411-412-012200-
SOUTHERN DESERTS

CITY           SKY/WX    TMP DP  RH WIND       PRES   REMARKS
LORDSBURG      FAIR      91  37  15 W14       30.02F
DEMING         SUNNY     95  29   9 W8G24     30.00F
LAS CRUCES     SUNNY     97  29   9 SW9G16    30.00F
HOLLOMAN AFB   SUNNY     95  36  12 W9        29.96F
ALAMOGORDO     SUNNY     95  36  12 W10G16    29.99F
T OR C         SUNNY     92  36  14 E8        30.01F

$$
NMZ519>523-012200-
CENTRAL VALLEYS/CENTRAL HIGHLANDS

CITY           SKY/WX    TMP DP  RH WIND       PRES   REMARKS
ALBUQUERQUE    MOSUNNY   90  37  15 SW12      30.06F
DOUBLE EAGLE   MOSUNNY   88  39  18 SW7       30.10F
CLINES CORNERS SUNNY     84  35  17 NW14G24   30.17F
BELEN          FAIR      93  37  14 SW6G16    30.04F
SOCORRO        FAIR      91  38  15 E7        30.02F

$$
NMZ524>526-539-540-012200-
SOUTHCENTRAL MOUNTAINS

CITY           SKY/WX    TMP DP  RH WIND       PRES   REMARKS
RUIDOSO        NOT AVBL

$$
NMZ527>531-012200-
NORTHEAST HIGHLANDS/NORTHEAST PLAINS

CITY           SKY/WX    TMP DP  RH WIND       PRES   REMARKS
LAS VEGAS      SUNNY     87  36  16 SW22G31   30.11F
RATON          SUNNY     87  37  17 S13G18    30.03F
CLAYTON        SUNNY     82  50  32 E7        30.01F

$$
NMZ532>537-012200-
EASTCENTRAL PLAINS

CITY           SKY/WX    TMP DP  RH WIND       PRES   REMARKS
TUCUMCARI      SUNNY     95  44  17 S7        29.92F
CANNON AFB     SUNNY     96  42  15 SW9G18    29.95F
CLOVIS AIRPORT   N/A     95  45  17 SW8       29.97F

$$
NMZ028-029-538-012200-
SOUTHEAST PLAINS

CITY           SKY/WX    TMP DP  RH WIND       PRES   REMARKS
ROSWELL        SUNNY     99  42  14 SE8G23    29.90F
CARLSBAD       SUNNY    102  39  11 VRB7      29.87F HX  97
HOBBS          SUNNY    100  37  11 VRB3      29.91F HX  95


$$



USA.gov is the U.S. government's official web portal to all federal, state and local government web resources and services.